Location: Liscomb Game Sanctuary
(45.1633°N, 62.5575°W)
Time: 05:41:33
(UTC-03:00)

Amateur Radio Satellites - All Passes

Search period start: 01 October 2016 05:11
Search period end: 02 October 2016 05:11
Location: Liscomb Game Sanctuary, 45.1633°N, 62.5575°W

Satellite Date Start Highest point End Downlink Frequencies (MHz)
Time Altitude Azimuth
CUSAT 1 01 Oct 05:12:49 05:19:47 36° 66° (ENE) 05:25:41 437.405
PCSat 01 Oct 05:15:13 05:20:29 50° 308° (NW) 05:25:47 145.827
ITAMSAT 1 01 Oct 05:15:53 05:20:38 36° 294° (WNW) 05:25:23 435.822/435.867
AIST 2 01 Oct 05:19:15 05:22:10 18° 322° (NW) 05:25:06 435.215
AIST 1 01 Oct 05:23:58 05:28:20 72° 96° (E) 05:32:42
BRITE-PL 01 Oct 05:25:43 05:26:45 11° 85° (E) 05:27:47 437.365/2234.400
HORYU 2 01 Oct 05:30:46 05:34:05 20° 93° (E) 05:37:23 437.375
DANDE 01 Oct 05:33:58 05:41:01 29° 62° (ENE) 05:47:38 436.750
AO-7 01 Oct 05:47:23 05:55:36 68° 294° (WNW) 06:03:47 29.400- 29.500
CUBESAT XI-V 01 Oct 05:50:06 05:54:42 55° 260° (W) 05:59:22 437.345
YUBILEINY 01 Oct 05:55:32 06:00:45 17° 305° (NW) 06:05:59 435.215
CUTE-I 01 Oct 06:03:44 06:05:07 11° 86° (E) 06:06:29 437.470
Cubesat XI-IV 01 Oct 06:04:40 06:06:07 11° 86° (E) 06:07:35 437.490
O/OREOS (USA 219) 01 Oct 06:07:44 06:10:28 16° 99° (E) 06:13:15 437.305
AO-85 01 Oct 06:10:52 06:14:35 33° 244° (WSW) 06:18:07 145.980
STARS 01 Oct 06:25:37 06:26:27 10° 272° (W) 06:27:17 437.465
Cosmos 2504 01 Oct 06:28:43 06:33:28 18° 299° (WNW) 06:38:13 435.465 / 435.565
GOMX 1 01 Oct 06:32:58 06:36:17 21° 92° (E) 06:39:29 467.674
RS-15 01 Oct 06:37:31 06:48:20 38° 254° (WSW) 06:58:57 29.354- 29.394
STRAND 1 01 Oct 06:41:11 06:45:36 30° 65° (ENE) 06:50:02 437.568
CUSAT 1 01 Oct 06:54:48 07:02:04 50° 269° (W) 07:08:04 437.405
BRITE-PL 01 Oct 07:01:15 07:06:03 81° 285° (WNW) 07:10:26 437.365/2234.400
PCSat 01 Oct 07:02:37 07:05:13 13° 330° (NNW) 07:07:48 145.827
AIST 1 01 Oct 07:04:42 07:06:28 12° 295° (WNW) 07:08:14
HORYU 2 01 Oct 07:06:36 07:10:50 43° 290° (WNW) 07:15:04 437.375
NOAA 18 01 Oct 07:12:08 07:17:10 36° 97° (E) 07:22:11 137.9125
NOAA 15 01 Oct 07:12:33 07:17:46 56° 101° (E) 07:22:56 137.62
DANDE 01 Oct 07:16:14 07:24:40 77° 263° (W) 07:32:18 436.750
Cosmos 2499 01 Oct 07:35:02 07:39:18 17° 78° (ENE) 07:43:34 435.465 / 435.565
LilacSat-2 01 Oct 07:39:03 07:42:55 80° 284° (WNW) 07:46:46 437.200
CUTE-I 01 Oct 07:40:35 07:45:59 81° 104° (ESE) 07:51:21 437.470
Cubesat XI-IV 01 Oct 07:41:37 07:47:01 82° 104° (ESE) 07:52:23 437.490
AO-7 01 Oct 07:41:44 07:46:54 19° 316° (NW) 07:52:04 29.400- 29.500
O/OREOS (USA 219) 01 Oct 07:44:52 07:49:23 59° 297° (WNW) 07:53:57 437.305
BEESAT 3 01 Oct 08:01:02 08:04:07 21° 41° (NE) 08:07:12 437.485
SEEDS 01 Oct 08:08:54 08:10:46 13° 89° (E) 08:12:37 437.485
GOMX 1 01 Oct 08:10:33 08:14:34 36° 291° (WNW) 08:18:24 467.674
DOVE 4 01 Oct 08:13:07 08:17:19 79° 284° (WNW) 08:21:27 437.250
CUTE 1.7 + AOD 2 01 Oct 08:13:09 08:16:22 20° 92° (E) 08:19:33 437.475
CANX-2 01 Oct 08:14:56 08:18:27 24° 94° (E) 08:21:56 2200.000
GONETS M04 01 Oct 08:16:44 08:25:00 47° 88° (E) 08:33:17
STRAND 1 01 Oct 08:19:58 08:24:40 37° 263° (W) 08:29:25 437.568
BRITE-PL 01 Oct 08:42:35 08:43:36 11° 305° (NW) 08:44:35 437.365/2234.400
HO-68 01 Oct 08:45:24 08:52:17 48° 100° (E) 08:59:08 435.675
PRISM 01 Oct 08:49:32 08:53:34 50° 72° (ENE) 08:57:38 437.425
NOAA 18 01 Oct 08:52:52 08:57:47 35° 295° (WNW) 09:02:42 137.9125
NOAA 15 01 Oct 08:53:06 08:57:10 23° 299° (WNW) 09:01:12 137.62
CINEMA 3 01 Oct 08:58:10 09:02:23 82° 103° (ESE) 09:06:41 145.822/145.860
DANDE 01 Oct 09:01:01 09:06:03 18° 283° (WNW) 09:10:51 436.750
BEESAT 2 01 Oct 09:03:49 09:07:37 38° 48° (NE) 09:11:24 435.950
COMPASS 1 01 Oct 09:07:15 09:11:09 35° 97° (E) 09:15:02 437.405
CUTE-I 01 Oct 09:22:06 09:25:21 17° 302° (WNW) 09:28:38 437.470
Cubesat XI-IV 01 Oct 09:23:10 09:26:25 17° 302° (WNW) 09:29:40 437.490
ANTELSAT 01 Oct 09:23:40 09:26:25 17° 63° (ENE) 09:29:12 437.575/2403.000
Cosmos 2499 01 Oct 09:24:17 09:31:23 84° 279° (W) 09:38:32 435.465 / 435.565
FUNcube-1 01 Oct 09:28:26 09:31:40 20° 93° (E) 09:34:55 145.935
BEESAT 3 01 Oct 09:38:10 09:42:03 51° 240° (WSW) 09:45:54 437.485
CUBEBUG 2 01 Oct 09:40:43 09:45:01 65° 101° (ESE) 09:49:27 437.445
TIGRISAT 01 Oct 09:42:20 09:45:45 24° 66° (ENE) 09:49:12 435.000
SEEDS 01 Oct 09:42:39 09:46:54 65° 286° (WNW) 09:51:07 437.485
CUTE 1.7 + AOD 2 01 Oct 09:48:20 09:52:22 40° 290° (WNW) 09:56:23 437.475
CANX-2 01 Oct 09:50:28 09:54:21 34° 291° (WNW) 09:58:14 2200.000
UWE-3 01 Oct 09:50:58 09:55:15 56° 100° (E) 09:59:38 435.000/436.395/437.385
AAUSAT CUBESAT 2 01 Oct 09:54:22 09:58:36 88° 283° (WNW) 10:02:47 437.432
Oscar 11 01 Oct 10:02:53 10:07:04 45° 99° (E) 10:11:15 145.826/435.025
ZACube-1 01 Oct 10:11:51 10:16:10 59° 101° (E) 10:20:34 437.345
GONETS M04 01 Oct 10:13:33 10:21:52 44° 289° (WNW) 10:30:15
AIST 2 01 Oct 10:21:07 10:23:39 15° 35° (NE) 10:26:12 435.215
UNISAT 6 01 Oct 10:23:15 10:27:28 68° 74° (ENE) 10:31:43 437.425
PRISM 01 Oct 10:26:39 10:29:10 15° 268° (W) 10:31:41 437.425
HO-68 01 Oct 10:33:25 10:39:52 38° 299° (WNW) 10:46:18 435.675
PCSat 01 Oct 10:36:29 10:37:44 11° 25° (NNE) 10:38:59 145.827
CINEMA 3 01 Oct 10:37:47 10:38:56 11° 300° (WNW) 10:40:06 145.822/145.860
BEESAT 2 01 Oct 10:42:01 10:45:15 23° 246° (WSW) 10:48:27 435.950
DELFI C3 01 Oct 10:42:25 10:46:19 48° 99° (E) 10:50:11 145.870
COMPASS 1 01 Oct 10:43:12 10:46:31 23° 294° (WNW) 10:49:49 437.405
DUCHIFAT 1 01 Oct 10:46:11 10:48:40 16° 62° (ENE) 10:51:09 145.980
PHONESAT 2.4 01 Oct 10:50:50 10:53:20 25° 168° (SSE) 10:55:51 2401.200-2431.200
QB50P1 01 Oct 10:51:53 10:54:57 20° 64° (ENE) 10:58:02 145.935-145.965
ANTELSAT 01 Oct 10:58:38 11:02:46 50° 260° (W) 11:06:57 437.575/2403.000
JAS-2 01 Oct 11:00:32 11:06:30 33° 60° (ENE) 11:12:58 435.910
FUNcube-1 01 Oct 11:03:57 11:08:05 43° 289° (WNW) 11:12:16 145.935
POPSAT HIP 1 01 Oct 11:05:16 11:08:46 26° 67° (ENE) 11:12:16 437.405
TIGRISAT 01 Oct 11:18:28 11:22:18 33° 263° (W) 11:26:11 435.000
NANOSAT C BR1 01 Oct 11:18:32 11:22:19 34° 69° (ENE) 11:26:07 145.865
CUBEBUG 2 01 Oct 11:18:50 11:21:11 14° 298° (WNW) 11:23:34 437.445
Cosmos 2499 01 Oct 11:21:38 11:25:45 16° 301° (WNW) 11:29:54 435.465 / 435.565
UWE-3 01 Oct 11:28:34 11:31:19 17° 297° (WNW) 11:34:07 435.000/436.395/437.385
HUMSAT D 01 Oct 11:34:54 11:39:12 87° 287° (WNW) 11:43:30 437.325/437.525
Oscar 11 01 Oct 11:39:45 11:42:54 20° 296° (WNW) 11:46:03 145.826/435.025
ESTCUBE 1 01 Oct 11:41:26 11:44:36 18° 92° (E) 11:47:45 437.505/2401.250
QB50P2 01 Oct 11:45:13 11:49:24 76° 75° (ENE) 11:53:37 145.880/145.840
POLYITAN 1 01 Oct 11:47:23 11:51:34 76° 74° (ENE) 11:55:46 437.675
ZACube-1 01 Oct 11:49:23 11:52:02 16° 297° (WNW) 11:54:41 437.345
AIST 2 01 Oct 11:58:33 12:02:47 86° 54° (NE) 12:06:59 435.215
UNISAT 6 01 Oct 12:03:07 12:04:40 12° 271° (W) 12:06:13 437.425
YUBILEINY 01 Oct 12:06:15 12:10:50 15° 53° (NE) 12:15:23 435.215
BUGSAT 1 01 Oct 12:06:28 12:10:20 43° 71° (ENE) 12:14:11 437.445
AISAT 01 Oct 12:17:15 12:20:38 21° 93° (E) 12:23:59 437.250
Oscar 19 01 Oct 12:17:35 12:20:53 17° 59° (ENE) 12:24:14 437.125/150
PCSat 01 Oct 12:17:45 12:22:47 37° 48° (NE) 12:27:48 145.827
DELFI C3 01 Oct 12:18:17 12:20:47 16° 297° (WNW) 12:23:16 145.870
DUCHIFAT 1 01 Oct 12:19:50 12:23:56 55° 259° (W) 12:28:03 145.980
PHONESAT 2.4 01 Oct 12:26:24 12:29:03 31° 185° (S) 12:31:42 2401.200-2431.200
QB50P1 01 Oct 12:26:30 12:30:27 41° 261° (W) 12:34:27 145.935-145.965
50 SAT 01 Oct 12:37:26 12:40:40 29° 96° (E) 12:43:53 437.505
DX 1 01 Oct 12:39:14 12:42:35 21° 94° (E) 12:45:54 434.975-435.025
POPSAT HIP 1 01 Oct 12:40:47 12:44:28 30° 264° (W) 12:48:10 437.405
JAS-2 01 Oct 12:44:28 12:51:02 58° 261° (W) 12:58:28 435.910
CUBEBUG 1 01 Oct 12:53:52 12:58:12 64° 101° (E) 13:02:28 437.445
NANOSAT C BR1 01 Oct 12:54:49 12:58:07 22° 266° (W) 13:01:27 145.865
VELOX 1 01 Oct 12:59:49 13:04:10 56° 101° (E) 13:08:28 145.980
AO-7 01 Oct 13:09:30 13:13:11 14° 39° (NE) 13:16:53 29.400- 29.500
AUBIESAT-1 01 Oct 13:12:57 13:15:35 21° 101° (ESE) 13:18:14 437.475
HUMSAT D 01 Oct 13:13:29 13:14:07 10° 301° (WNW) 13:14:45 437.325/437.525
SPROUT 01 Oct 13:16:17 13:20:25 48° 99° (E) 13:24:33 437.525
ESTCUBE 1 01 Oct 13:17:18 13:21:41 49° 289° (WNW) 13:26:02 437.505/2401.250
QB50P2 01 Oct 13:25:00 13:25:43 10° 272° (W) 13:26:27 145.880/145.840
POLYITAN 1 01 Oct 13:27:15 13:27:54 10° 272° (W) 13:28:31 437.675
UKube-1 01 Oct 13:38:18 13:42:38 69° 103° (ESE) 13:46:54 .
AIST 2 01 Oct 13:39:36 13:40:35 11° 252° (WSW) 13:41:36 435.215
BUGSAT 1 01 Oct 13:43:13 13:45:55 17° 268° (W) 13:48:36 437.445
Gurwin Techsat 1B 01 Oct 13:44:27 13:49:30 47° 69° (ENE) 13:54:35 435.225
AISAT 01 Oct 13:53:09 13:57:15 39° 291° (WNW) 14:01:19 437.250
M-CUBED/EXP-1 PRIME 01 Oct 13:53:22 13:56:39 86° 283° (WNW) 13:59:56 437.505
Oscar 19 01 Oct 13:54:26 13:59:38 74° 257° (WSW) 14:04:51 437.125/150
YUBILEINY 01 Oct 14:00:59 14:09:40 65° 77° (ENE) 14:18:17 435.215
PCSat 01 Oct 14:01:12 14:06:13 39° 247° (WSW) 14:11:12 145.827
Cosmos 2491 01 Oct 14:01:34 14:09:01 32° 83° (E) 14:16:29 435.465 / 435.565
PHONESAT 2.4 01 Oct 14:02:47 14:04:40 16° 201° (SSW) 14:06:32 2401.200-2431.200
50 SAT 01 Oct 14:11:13 14:14:00 21° 294° (WNW) 14:16:46 437.505
DX 1 01 Oct 14:14:51 14:18:54 39° 291° (WNW) 14:22:55 434.975-435.025
Cosmos 2504 01 Oct 14:20:47 14:27:33 35° 70° (ENE) 14:34:41 435.465 / 435.565
TISAT 1 01 Oct 14:22:24 14:26:27 49° 100° (E) 14:30:30 437.305
CUBEBUG 1 01 Oct 14:31:35 14:33:59 15° 299° (WNW) 14:36:20 437.445
VELOX 1 01 Oct 14:37:23 14:40:12 17° 298° (WNW) 14:43:01 145.980
SO-50 01 Oct 14:44:43 14:49:22 49° 120° (ESE) 14:53:59 436.795
AUBIESAT-1 01 Oct 14:47:22 14:50:02 23° 297° (WNW) 14:52:43 437.475
SPROUT 01 Oct 14:53:08 14:56:01 18° 297° (WNW) 14:58:53 437.525
AO-7 01 Oct 14:56:09 15:04:02 50° 61° (ENE) 15:11:56 29.400- 29.500
ITAMSAT 1 01 Oct 14:56:18 15:01:23 60° 71° (ENE) 15:06:30 435.822/435.867
ITUPSAT 1 01 Oct 15:00:04 15:04:03 25° 94° (E) 15:08:01 437.325
SWISSCUBE 01 Oct 15:10:37 15:15:04 36° 97° (E) 15:19:28 437.505
UKube-1 01 Oct 15:15:56 15:18:08 14° 300° (WNW) 15:20:18 .
BEESAT 01 Oct 15:23:04 15:27:38 42° 99° (E) 15:32:10 436.000
Gurwin Techsat 1B 01 Oct 15:25:21 15:29:40 25° 267° (W) 15:34:01 435.225
AIST 1 01 Oct 15:29:27 15:32:48 22° 71° (ENE) 15:36:06
Cosmos 2491 01 Oct 15:56:37 16:05:17 61° 283° (WNW) 16:14:05 435.465 / 435.565
YUBILEINY 01 Oct 15:58:40 16:05:48 30° 279° (W) 16:12:55 435.215
TISAT 1 01 Oct 15:59:02 16:01:44 17° 297° (WNW) 16:04:26 437.305
KKS-1 01 Oct 16:11:17 16:13:48 15° 91° (E) 16:16:18 437.445
O/OREOS (USA 219) 01 Oct 16:13:40 16:18:06 44° 60° (ENE) 16:22:28 437.305
Cosmos 2504 01 Oct 16:13:58 16:21:07 50° 270° (W) 16:28:44 435.465 / 435.565
MOZHAYETS 4 01 Oct 16:14:06 16:18:04 27° 94° (E) 16:22:00
SO-50 01 Oct 16:25:52 16:30:04 29° 318° (NW) 16:34:13 436.795
HORYU 2 01 Oct 16:30:42 16:34:16 25° 65° (ENE) 16:37:51 437.375
STARS 01 Oct 16:34:21 16:36:09 12° 89° (E) 16:37:56 437.465
BRITE-PL 01 Oct 16:36:00 16:40:12 22° 63° (ENE) 16:44:18 437.365/2234.400
ITUPSAT 1 01 Oct 16:37:31 16:42:00 40° 292° (WNW) 16:46:28 437.325
ITAMSAT 1 01 Oct 16:37:39 16:41:15 19° 269° (W) 16:44:53 435.822/435.867
SWISSCUBE 01 Oct 16:48:37 16:52:43 29° 295° (WNW) 16:56:49 437.505
AO-7 01 Oct 16:49:10 16:56:55 42° 261° (W) 17:04:42 29.400- 29.500
NOAA 15 01 Oct 16:57:24 17:00:45 17° 58° (ENE) 17:04:08 137.62
BEESAT 01 Oct 17:01:19 17:05:11 25° 296° (WNW) 17:09:01 436.000
NOAA 18 01 Oct 17:03:20 17:06:04 14° 54° (NE) 17:08:48 137.9125
AIST 1 01 Oct 17:06:36 17:10:30 35° 269° (W) 17:14:21
CUTE-I 01 Oct 17:26:05 17:30:15 24° 62° (ENE) 17:34:27 437.470
Cubesat XI-IV 01 Oct 17:27:14 17:31:26 24° 62° (ENE) 17:35:40 437.490
HO-68 01 Oct 17:36:04 17:36:48 10° 42° (NE) 17:37:31 435.675
GOMX 1 01 Oct 17:41:53 17:46:37 35° 69° (ENE) 17:51:07 467.674
DOVE 4 01 Oct 17:44:31 17:47:27 16° 63° (ENE) 17:50:18 437.250
CUBESAT XI-V 01 Oct 17:44:44 17:48:56 32° 95° (E) 17:53:04 437.345
KKS-1 01 Oct 17:46:23 17:50:45 59° 288° (WNW) 17:55:05 437.445
MOZHAYETS 4 01 Oct 17:51:03 17:55:16 35° 292° (WNW) 17:59:29
O/OREOS (USA 219) 01 Oct 17:53:42 17:57:12 22° 258° (WSW) 18:00:40 437.305
Cosmos 2491 01 Oct 18:00:05 18:04:22 14° 308° (NW) 18:08:40 435.465 / 435.565
HORYU 2 01 Oct 18:06:36 18:10:39 36° 263° (W) 18:14:44 437.375
STARS 01 Oct 18:08:38 18:12:59 70° 286° (WNW) 18:17:19 437.465
BRITE-PL 01 Oct 18:12:36 18:18:14 64° 260° (W) 18:23:41 437.365/2234.400
CUSAT 1 01 Oct 18:15:19 18:21:11 32° 84° (E) 18:27:49 437.405
LilacSat-2 01 Oct 18:22:40 18:26:23 65° 74° (ENE) 18:30:09 437.200
GONETS M04 01 Oct 18:24:27 18:31:33 26° 62° (ENE) 18:38:34
CINEMA 3 01 Oct 18:28:31 18:29:28 11° 60° (ENE) 18:30:23 145.822/145.860
NOAA 15 01 Oct 18:34:35 18:39:54 77° 256° (WSW) 18:45:15 137.62
NOAA 18 01 Oct 18:40:26 18:45:54 82° 73° (ENE) 18:51:23 137.9125
DANDE 01 Oct 18:45:16 18:49:26 20° 78° (ENE) 18:54:16 436.750
RS-15 01 Oct 18:50:58 19:01:02 36° 105° (ESE) 19:11:28 29.354- 29.394
SEEDS 01 Oct 19:03:09 19:04:56 12° 60° (ENE) 19:06:43 437.485
CUTE-I 01 Oct 19:04:49 19:09:58 52° 260° (W) 19:15:10 437.470
Cubesat XI-IV 01 Oct 19:06:02 19:11:12 51° 260° (W) 19:16:24 437.490
CUTE 1.7 + AOD 2 01 Oct 19:08:02 19:11:04 19° 64° (ENE) 19:14:07 437.475
ISS 01 Oct 19:09:07 19:11:51 25° 138° (SE) 19:14:35 145.825
CANX-2 01 Oct 19:09:48 19:13:07 23° 66° (ENE) 19:16:29 2200.000
Cosmos 2499 01 Oct 19:11:36 19:18:41 39° 72° (ENE) 19:26:13 435.465 / 435.565
HO-68 01 Oct 19:16:03 19:22:44 45° 63° (ENE) 19:29:26 435.675
DOVE 4 01 Oct 19:19:51 19:24:44 66° 258° (WSW) 19:29:20 437.250
GOMX 1 01 Oct 19:19:55 19:24:40 33° 264° (W) 19:29:12 467.674
CUBESAT XI-V 01 Oct 19:22:09 19:26:15 30° 293° (WNW) 19:30:18 437.345
CUSAT 1 01 Oct 19:55:56 20:02:40 59° 286° (WNW) 20:10:31 437.405
COMPASS 1 01 Oct 19:59:48 20:03:31 31° 68° (ENE) 20:07:16 437.405
CINEMA 3 01 Oct 20:01:36 20:06:00 87° 261° (W) 20:10:15 145.822/145.860
NOAA 15 01 Oct 20:20:01 20:20:33 10° 274° (W) 20:21:04 137.62
GONETS M04 01 Oct 20:20:33 20:29:23 78° 265° (W) 20:38:06
NOAA 18 01 Oct 20:24:19 20:27:13 14° 271° (W) 20:30:07 137.9125
DANDE 01 Oct 20:25:17 20:31:01 77° 282° (WNW) 20:38:32 436.750
AO-85 01 Oct 20:25:30 20:30:27 47° 119° (ESE) 20:35:07 145.980
FUNcube-1 01 Oct 20:26:24 20:29:20 19° 64° (ENE) 20:32:19 145.935
STRAND 1 01 Oct 20:27:43 20:32:52 64° 102° (ESE) 20:37:58 437.568
SEEDS 01 Oct 20:35:50 20:40:02 74° 259° (W) 20:44:18 437.485
CUBEBUG 2 01 Oct 20:40:47 20:44:55 67° 74° (ENE) 20:49:02 437.445
CUTE 1.7 + AOD 2 01 Oct 20:42:33 20:46:36 44° 262° (W) 20:50:43 437.475
CANX-2 01 Oct 20:44:51 20:48:47 36° 263° (W) 20:52:46 2200.000
ISS 01 Oct 20:44:57 20:48:09 54° 335° (NNW) 20:51:23 145.825
AAUSAT CUBESAT 2 01 Oct 20:46:03 20:50:12 78° 74° (ENE) 20:54:25 437.432
UWE-3 01 Oct 20:49:56 20:53:59 55° 73° (ENE) 20:58:03 435.000/436.395/437.385
Oscar 11 01 Oct 20:59:21 21:03:26 44° 71° (ENE) 21:07:34 145.826/435.025
RS-15 01 Oct 21:00:46 21:12:31 75° 309° (NW) 21:24:52 29.354- 29.394
HO-68 01 Oct 21:03:51 21:10:29 40° 262° (W) 21:17:11 435.675
Cosmos 2499 01 Oct 21:04:42 21:11:53 46° 270° (W) 21:19:35 435.465 / 435.565
ZACube-1 01 Oct 21:09:34 21:13:37 57° 73° (ENE) 21:17:43 437.345
DELFI C3 01 Oct 21:29:55 21:33:37 36° 70° (ENE) 21:37:21 145.870
SO-50 01 Oct 21:34:43 21:37:37 16° 32° (NNE) 21:40:27 436.795
COMPASS 1 01 Oct 21:35:37 21:39:05 25° 266° (W) 21:42:35 437.405
CUSAT 1 01 Oct 21:42:49 21:46:37 14° 309° (NW) 21:50:37 437.405
FUNcube-1 01 Oct 22:01:25 22:05:19 41° 262° (W) 22:09:16 145.935
PRISM 01 Oct 22:04:02 22:08:09 62° 101° (E) 22:12:12 437.425
AO-85 01 Oct 22:06:35 22:11:05 31° 316° (NW) 22:15:19 145.980
STRAND 1 01 Oct 22:07:57 22:11:33 20° 300° (WNW) 22:15:10 437.568
DANDE 01 Oct 22:11:31 22:15:30 17° 308° (NW) 22:19:58 436.750
UNISAT 6 01 Oct 22:14:20 22:16:17 13° 89° (E) 22:18:13 437.425
GONETS M04 01 Oct 22:19:46 22:24:39 16° 286° (WNW) 22:29:30
CUBEBUG 2 01 Oct 22:20:42 22:22:01 11° 271° (W) 22:23:19 437.445
ISS 01 Oct 22:22:19 22:25:07 25° 356° (N) 22:27:55 145.825
HUMSAT D 01 Oct 22:27:47 22:31:53 82° 75° (ENE) 22:36:03 437.325/437.525
UWE-3 01 Oct 22:28:42 22:30:49 14° 270° (W) 22:32:57 435.000/436.395/437.385
Oscar 11 01 Oct 22:36:45 22:39:47 19° 268° (W) 22:42:52 145.826/435.025
ESTCUBE 1 01 Oct 22:42:49 22:46:21 23° 64° (ENE) 22:49:53 437.505/2401.250
ANTELSAT 01 Oct 22:48:01 22:51:51 27° 95° (E) 22:55:43 437.575/2403.000
ZACube-1 01 Oct 22:48:18 22:50:18 13° 271° (W) 22:52:19 437.345
DELFI C3 01 Oct 23:05:38 23:08:35 19° 267° (W) 23:11:32 145.870
TIGRISAT 01 Oct 23:07:02 23:11:14 40° 98° (E) 23:15:30 435.000
M-CUBED/EXP-1 PRIME 01 Oct 23:08:28 23:10:56 16° 60° (ENE) 23:13:17 437.505
SO-50 01 Oct 23:14:16 23:18:53 76° 52° (NE) 23:23:22 436.795
AISAT 01 Oct 23:16:24 23:20:04 26° 66° (ENE) 23:23:44 437.250
50 SAT 01 Oct 23:16:25 23:19:00 19° 66° (ENE) 23:21:37 437.505
RS-15 01 Oct 23:16:47 23:27:29 35° 339° (NNW) 23:38:30 29.354- 29.394
QB50P2 01 Oct 23:30:43 23:31:34 10° 88° (E) 23:32:23 145.880/145.840
BEESAT 3 01 Oct 23:31:45 23:34:00 15° 111° (ESE) 23:36:14 437.485
POLYITAN 1 01 Oct 23:32:52 23:33:43 10° 88° (E) 23:34:33 437.675
DX 1 01 Oct 23:36:35 23:40:10 25° 65° (ENE) 23:43:45 434.975-435.025
PRISM 01 Oct 23:40:47 23:42:58 14° 299° (WNW) 23:45:07 437.425
UNISAT 6 01 Oct 23:49:00 23:53:26 71° 285° (WNW) 23:57:57 437.425
CUBEBUG 1 01 Oct 23:51:21 23:55:43 68° 75° (ENE) 00:00:07 437.445
JAS-2 01 Oct 23:52:23 23:58:37 25° 88° (E) 00:04:33 435.910
VELOX 1 01 Oct 23:58:42 00:03:05 64° 74° (ENE) 00:07:30 145.980
ISS 01 Oct 23:59:09 00:02:12 34° 16° (NNE) 00:05:15 145.825
AUBIESAT-1 02 Oct 00:00:07 00:03:50 46° 67° (ENE) 00:07:20 437.475
DUCHIFAT 1 02 Oct 00:02:26 00:05:30 19° 93° (E) 00:08:34 145.980
Cosmos 2491 02 Oct 00:08:53 00:14:39 18° 56° (ENE) 00:20:22 435.465 / 435.565
QB50P1 02 Oct 00:09:10 00:12:44 26° 95° (E) 00:16:17 145.935-145.965
SPROUT 02 Oct 00:11:29 00:15:34 47° 71° (ENE) 00:19:40 437.525
ESTCUBE 1 02 Oct 00:18:36 00:22:54 42° 262° (W) 00:27:14 437.505/2401.250
POPSAT HIP 1 02 Oct 00:22:54 00:26:47 35° 97° (E) 00:30:41 437.405
ANTELSAT 02 Oct 00:24:36 00:28:33 32° 292° (WNW) 00:32:35 437.575/2403.000
UKube-1 02 Oct 00:34:24 00:38:43 75° 73° (ENE) 00:43:03 .
BEESAT 2 02 Oct 00:34:54 00:38:28 33° 117° (ESE) 00:42:05 435.950
NANOSAT C BR1 02 Oct 00:35:57 00:40:01 47° 100° (E) 00:44:05 145.865
M-CUBED/EXP-1 PRIME 02 Oct 00:41:23 00:45:14 45° 255° (WSW) 00:48:47 437.505
TIGRISAT 02 Oct 00:44:15 00:47:42 23° 295° (WNW) 00:51:13 435.000
50 SAT 02 Oct 00:48:58 00:52:17 33° 263° (W) 00:55:38 437.505
AISAT 02 Oct 00:52:20 00:56:24 34° 263° (W) 01:00:28 437.250
SO-50 02 Oct 00:56:24 00:58:43 14° 251° (WSW) 01:01:00 436.795
QB50P2 02 Oct 01:03:39 01:07:52 76° 286° (WNW) 01:12:06 145.880/145.840
POLYITAN 1 02 Oct 01:05:47 01:10:02 76° 284° (WNW) 01:14:15 437.675
BEESAT 3 02 Oct 01:07:21 01:11:11 57° 309° (NW) 01:15:06 437.485
DX 1 02 Oct 01:12:13 01:16:12 34° 263° (W) 01:20:13 434.975-435.025
YUBILEINY 02 Oct 01:13:32 01:17:31 14° 72° (ENE) 01:21:30 435.215
TISAT 1 02 Oct 01:15:42 01:19:43 47° 71° (ENE) 01:23:44 437.305
BUGSAT 1 02 Oct 01:21:06 01:25:04 56° 101° (E) 01:29:03 437.445
CUBEBUG 1 02 Oct 01:30:31 01:32:28 13° 271° (W) 01:34:26 437.445
RS-15 02 Oct 01:34:03 01:44:42 32° 14° (NNE) 01:55:24 29.354- 29.394
ISS 02 Oct 01:35:36 01:38:49 55° 214° (SW) 01:42:02 145.825
AUBIESAT-1 02 Oct 01:36:17 01:38:28 14° 261° (W) 01:40:34 437.475
JAS-2 02 Oct 01:36:27 01:44:20 75° 288° (WNW) 01:51:43 435.910
DUCHIFAT 1 02 Oct 01:37:26 01:41:22 40° 290° (WNW) 01:45:17 145.980
VELOX 1 02 Oct 01:37:41 01:39:58 14° 270° (W) 01:42:17 145.980
QB50P1 02 Oct 01:44:48 01:48:30 30° 292° (WNW) 01:52:11 145.935-145.965
SPROUT 02 Oct 01:48:57 01:51:45 17° 268° (W) 01:54:34 437.525
POPSAT HIP 1 02 Oct 01:59:04 02:02:23 23° 294° (WNW) 02:05:42 437.405
Gurwin Techsat 1B 02 Oct 01:59:46 02:02:52 15° 89° (E) 02:05:58 435.225
AIST 2 02 Oct 02:01:48 02:02:02 10° 107° (ESE) 02:02:15 435.215
Oscar 19 02 Oct 02:04:12 02:08:51 33° 96° (E) 02:13:27 437.125/150
Cosmos 2491 02 Oct 02:04:17 02:13:11 77° 80° (E) 02:22:00 435.465 / 435.565
ITUPSAT 1 02 Oct 02:08:34 02:12:56 37° 68° (ENE) 02:17:19 437.325
NANOSAT C BR1 02 Oct 02:12:34 02:15:24 18° 297° (WNW) 02:18:15 145.865
BEESAT 2 02 Oct 02:12:52 02:16:19 28° 316° (NW) 02:19:49 435.950
UKube-1 02 Oct 02:14:00 02:15:16 11° 271° (W) 02:16:32 .
SWISSCUBE 02 Oct 02:18:49 02:23:25 52° 71° (ENE) 02:28:05 437.505
BEESAT 02 Oct 02:31:12 02:35:53 61° 72° (ENE) 02:40:37 436.000
BEESAT 3 02 Oct 02:48:34 02:49:42 11° 329° (NNW) 02:50:51 437.485
TISAT 1 02 Oct 02:52:58 02:55:38 16° 268° (W) 02:58:17 437.305
BUGSAT 1 02 Oct 02:57:49 03:00:01 14° 298° (WNW) 03:02:14 437.445
AO-7 02 Oct 02:59:16 03:01:10 11° 83° (E) 03:03:05 29.400- 29.500
PCSat 02 Oct 03:02:53 03:06:42 20° 106° (ESE) 03:10:32 145.827
Cosmos 2504 02 Oct 03:03:31 03:09:10 25° 83° (E) 03:14:45 435.465 / 435.565
YUBILEINY 02 Oct 03:03:54 03:12:35 70° 93° (E) 03:21:16 435.215
ITAMSAT 1 02 Oct 03:08:02 03:11:33 18° 91° (E) 03:15:03 435.822/435.867
KKS-1 02 Oct 03:11:10 03:14:17 19° 63° (ENE) 03:17:24 437.445
AO-85 02 Oct 03:16:28 03:18:28 13° 29° (NNE) 03:20:24 145.980
MOZHAYETS 4 02 Oct 03:17:49 03:21:53 32° 68° (ENE) 03:25:59
JAS-2 02 Oct 03:22:55 03:28:02 19° 308° (NW) 03:33:02 435.910
STARS 02 Oct 03:32:46 03:35:21 16° 61° (ENE) 03:37:57 437.465
AIST 2 02 Oct 03:35:42 03:39:49 87° 308° (NW) 03:44:00 435.215
Gurwin Techsat 1B 02 Oct 03:38:04 03:43:24 75° 287° (WNW) 03:48:42 435.225
Oscar 19 02 Oct 03:43:32 03:48:09 34° 294° (WNW) 03:52:43 437.125/150
ITUPSAT 1 02 Oct 03:46:49 03:50:50 27° 265° (W) 03:54:53 437.325
RS-15 02 Oct 03:48:05 04:00:23 62° 45° (NE) 04:12:28 29.354- 29.394
SWISSCUBE 02 Oct 03:58:09 04:01:31 19° 268° (W) 04:04:56 437.505
Cosmos 2491 02 Oct 04:02:23 04:09:03 25° 281° (W) 04:15:43 435.465 / 435.565
AIST 1 02 Oct 04:02:58 04:04:31 12° 83° (E) 04:06:05
BEESAT 02 Oct 04:11:10 04:14:05 16° 270° (W) 04:17:01 436.000
PCSat 02 Oct 04:44:11 04:49:34 67° 304° (NW) 04:55:00 145.827
KKS-1 02 Oct 04:46:11 04:50:29 49° 260° (W) 04:54:50 437.445
ITAMSAT 1 02 Oct 04:46:17 04:51:28 64° 288° (WNW) 04:56:37 435.822/435.867
CUSAT 1 02 Oct 04:47:26 04:53:44 28° 61° (ENE) 04:59:11 437.405
AO-7 02 Oct 04:47:28 04:55:40 60° 103° (ESE) 05:03:51 29.400- 29.500
CUBESAT XI-V 02 Oct 04:49:41 04:54:03 39° 69° (ENE) 04:58:26 437.345
Cosmos 2504 02 Oct 04:54:45 05:01:57 62° 282° (WNW) 05:09:05 435.465 / 435.565
MOZHAYETS 4 02 Oct 04:55:05 04:59:03 28° 265° (W) 05:03:03
AO-85 02 Oct 04:55:38 04:59:50 64° 52° (NE) 05:03:45 145.980
